Cloud_Cover
0 0 7 100 77 4 4 5 42 100 94 2 5 0 0 0 1 0 0 0 0 0 0 0 0 5 0 0 0 5 5 5 0 0 1 2 0 0 0 0 2 0 0 0 0
3 23 11 83 99 66 4 1 42 71 100 6 9 0 0 6 1 0 0 0 0 0 0 0 0 0 0 0 4 3 0 2 5 1 0 0 4 5 1 0 0 0 0 0 0
91 56 57 6 66 99 10 2 100 99 56 6 43 0 0 3 0 0 0 0 0 0 0 0 0 0 0 0 0 5 4 0 0 0 0 0 5 24 42 7 5 1 1 0 0
4 2 76 15 95 100 13 24 99 100 95 40 3 0 0 0 4 5 0 0 0 0 0 0 0 0 0 3 0 1 5 0 0 1 0 2 0 0 0 5 4 0 0 0 0
1 3 5 100 5 97 6 64 100 100 75 92 5 4 4 0 0 5 5 0 0 0 0 1 1 0 0 0 0 0 0 0 0 0 0 0 3 0 0 10 6 0 0 1 0
55 97 42 8 0 84 5 100 100 100 57 8 5 8 13 1 0 0 0 1 0 2 0 1 1 0 0 0 0 0 0 0 0 3 0 0 4 2 0 0 0 0 0 2 2
5 5 6 5 2 100 8 46 100 98 99 100 5 5 39 93 5 0 0 0 0 1 5 2 0 0 0 0 0 0 0 0 0 0 0 0 0 2 5 0 29 35 54 100 100
8 4 34 100 95 100 34 100 100 100 90 100 49 10 6 38 8 1 0 0 0 0 0 0 0 0 0 0 0 0 0 0 0 0 0 0 0 1 0 2 8 34 69 5 5
49 13 100 100 76 100 97 100 100 100 95 97 97 64 26 29 27 48 97 24 0 4 0 0 2 0 0 0 0 0 0 0 0 0 0 0 0 0 0 3 5 51 24 94 50
5 3 36 100 26 20 51 100 100 100 100 99 28 5 72 5 6 19 100 100 11 6 87 94 82 8 69 12 0 0 0 0 0 0 0 0 0 0 0 0 0 8 5 8 13
0 0 7 54 100 100 100 100 100 100 100 100 95 75 35 54 5 5 5 90 100 100 100 100 100 100 98 52 31 2 0 3 2 0 0 5 0 5 31 35 0 0 0 0 0
0 0 0 5 93 100 100 100 91 35 100 100 100 100 18 90 48 60 63 10 99 100 70 100 100 100 97 100 100 14 5 18 0 0 0 0 56 6 94 99 28 7 2 3 0
0 0 0 0 0 28 8 87 92 82 71 87 100 100 91 100 100 63 25 33 85 78 90 100 100 32 7 100 100 37 5 7 7 0 0 0 12 19 96 100 94 100 37 60 5
0 0 0 11 0 0 3 5 9 42 52 5 6 20 78 100 100 100 100 100 100 100 58 50 100 100 84 78 100 100 100 81 5 0 3 2 4 6 67 100 100 100 42 5 5
0 0 0 0 0 0 0 0 0 0 0 0 0 24 9 99 100 100 100 100 100 100 100 100 100 100 100 100 100 100 100 26 5 0 0 64 11 0 4 99 100 100 100 100 97
0 0 39 0 0 0 0 0 0 0 0 0 0 5 22 8 77 100 100 100 100 100 100 100 100 38 98 100 86 100 100 100 100 12 0 10 4 34 0 2 4 56 54 85 15
0 0 17 0 0 0 0 0 0 0 0 0 0 0 2 3 5 5 63 100 100 100 100 100 100 100 100 100 100 100 100 100 88 100 6 99 8 92 0 0 2 73 100 100 100
4 5 4 0 0 0 0 0 0 0 0 0 0 0 0 4 5 4 0 0 0 6 22 66 100 95 42 11 62 96 93 89 72 68 58 100 20 0 25 0 23 100 100 100 100
0 0 4 0 4 1 0 0 0 0 0 0 0 0 0 0 0 0 4 5 0 0 0 0 0 0 0 0 0 0 0 0 0 23 27 48 7 28 70 99 100 100 100 100 100
5 0 0 0 0 0 0 0 0 0 0 0 0 0 0 0 0 0 0 0 0 0 0 0 0 0 0 0 0 0 0 0 0 0 0 14 37 7 100 100 100 100 100 100 73
0 0 0 0 0 0 0 0 0 0 0 0 0 0 0 0 0 0 0 0 0 0 0 0 0 0 0 0 0 0 0 0 0 0 0 0 0 76 100 95 100 93 65 63 94
0 0 0 0 0 0 0 0 0 0 0 0 0 0 0 0 0 0 0 0 0 0 0 0 0 0 0 0 0 0 0 0 0 0 0 0 0 41 11 100 100 18 29 100 100
22 0 0 0 0 0 0 0 0 0 0 0 0 0 0 0 0 0 0 0 0 0 0 0 0 0 0 0 0 0 0 0 0 0 0 0 0 98 12 74 100 96 99 100 100
4 0 0 0 0 0 0 0 0 0 0 0 0 0 0 0 0 0 0 0 0 0 0 0 0 0 0 0 0 0 0 0 0 0 0 0 15 99 98 97 100 100 100 100 100
0 0 0 0 0 0 0 0 0 0 0 0 0 0 0 2 0 0 0 0 0 0 0 0 0 0 0 0 0 0 0 0 0 0 0 0 0 18 7 3 52 100 100 100 100
0 0 0 0 0 0 0 0 0 0 0 0 0 0 0 2 0 1 0 0 0 0 0 28 28 0 4 0 0 0 0 0 1 0 0 0 0 0 0 0 0 100 100 100 100
5 0 0 0 0 0 0 0 0 0 0 0 0 0 0 0 0 0 0 0 0 0 2 5 20 20 27 0 0 0 0 21 16 0 0 0 0 0 0 0 3 95 100 100 99